Weather History for Biloxi, MS

Change the Weather History Date:

Friday, March 8, 2013

  Actual Average Record
Temperature  
Mean Temperature 52 °F -  
Max Temperature 64 °F 67 °F 83 °F (1951)
Min Temperature 41 °F 49 °F 33 °F (1965)
Degree Days  
Heating Degree Days 12    
Growing Degree Days 2 (Base 50)    
Moisture  
Dew Point 43 °F    
Average Humidity 69    
Maximum Humidity 92    
Minimum Humidity 37    
Precipitation  
Precipitation 0.00 in - - ()
Sea Level Pressure  
Sea Level Pressure 30.26 in    
Wind  
Wind Speed 4 mph (WSW)    
Max Wind Speed 12 mph    
Max Gust Speed -    
Visibility 10 miles    
Events      
Averages and records for this station are not official NWS values.
T = Trace of Precipitation, MM = Missing Value Source: NWS Daily Summary

Daily Weather History Graph

Daily Weather History Graph

Search for Another Location

Airport:

Trip Planner

Search our weather history database for the weather conditions in past years. The results will help you decide how hot, cold, wet, or windy it might be!

Date:

Astronomy

Mar. 08, 2013 Rise Set
Actual Time 6:13 AM CST 5:59 PM CST
Civil Twilight 5:49 AM CST 6:23 PM CST
Nautical Twilight 5:21 AM CST 6:51 PM CST
Astronomical Twilight 4:53 AM CST 7:19 PM CST
Moon 3:46 AM CST (3/8) 3:04 PM CST (3/8)
Length of Visible Light 12h 33m
Length of Day
11h 45m
Waning Crescent, 11% of the Moon is Illuminated
Mar 8
Waning Crescent
Mar 11
New
Mar 19
First Quarter
Mar 27
Full
Apr 2
Last Quarter

Hourly Weather History & Observations

Time (CST) Temp. Windchill Dew Point Humidity Pressure Visibility Wind Dir Wind Speed Gust Speed Precip Events Conditions
12:58 AM 45.3 °F - 41.4 °F 86% 30.26 in 10.0 mi Calm Calm - N/A   Clear
1:58 AM 45.5 °F - 40.1 °F 81% 30.26 in 10.0 mi NNW 1.2 mph - N/A   Clear
2:58 AM 42.4 °F 40.7 °F 39.2 °F 88% 30.25 in 10.0 mi NNE 3.5 mph - N/A   Clear
3:58 AM 42.1 °F - 38.5 °F 87% 30.25 in 10.0 mi Variable 2.3 mph - N/A   Clear
4:58 AM 42.3 °F 39.4 °F 38.3 °F 86% 30.26 in 10.0 mi NNE 4.6 mph - N/A   Clear
5:58 AM 41.5 °F 37.1 °F 38.1 °F 88% 30.28 in 10.0 mi NE 6.9 mph - N/A   Clear
6:58 AM 41.7 °F 38.8 °F 38.5 °F 88% 30.30 in 10.0 mi NE 4.6 mph - N/A   Clear
7:58 AM 46.9 °F - 39.6 °F 76% 30.31 in 10.0 mi NE 5.8 mph - N/A   Clear
8:58 AM 54.7 °F - 38.8 °F 55% 30.32 in 10.0 mi NE 6.9 mph - N/A   Clear
9:58 AM 59.7 °F - 38.1 °F 45% 30.31 in 10.0 mi Variable 3.5 mph - N/A   Clear
10:58 AM 63.7 °F - 36.9 °F 37% 30.30 in 10.0 mi Variable 2.3 mph - N/A   Clear
11:58 AM 64.4 °F - 42.1 °F 44% 30.28 in 10.0 mi SSE 6.9 mph - N/A   Clear
12:58 PM 64.2 °F - 40.3 °F 41% 30.26 in 10.0 mi SSW 11.5 mph - N/A   Clear
1:58 PM 64.4 °F - 40.1 °F 41% 30.24 in 10.0 mi SSW 10.4 mph - N/A   Clear
2:58 PM 63.0 °F - 41.9 °F 46% 30.23 in 10.0 mi South 10.4 mph - N/A   Clear
3:58 PM 61.7 °F - 44.4 °F 53% 30.22 in 10.0 mi SSW 8.1 mph - N/A   Clear
4:58 PM 59.7 °F - 46.0 °F 61% 30.23 in 10.0 mi SW 8.1 mph - N/A   Clear
5:58 PM 57.2 °F - 47.7 °F 70% 30.23 in 10.0 mi SW 5.8 mph - N/A   Clear
6:58 PM 56.8 °F - 47.8 °F 72% 30.22 in 10.0 mi SW 3.5 mph - N/A   Overcast
7:58 PM 56.7 °F - 47.8 °F 72% 30.23 in 10.0 mi SW 2.3 mph - N/A   Mostly Cloudy
8:58 PM 55.6 °F - 47.7 °F 75% 30.22 in 10.0 mi WSW 1.2 mph - N/A   Mostly Cloudy
9:58 PM 54.0 °F - 50.9 °F 89% 30.22 in 10.0 mi North 1.2 mph - N/A   Overcast
10:58 PM 54.0 °F - 50.9 °F 89% 30.23 in 10.0 mi NW 2.3 mph - N/A   Mostly Cloudy
11:58 PM 52.2 °F - 50.0 °F 92% 30.22 in 10.0 mi Calm Calm - N/A   Clear